AAL721 KLAX-KPHX

Flight info

Callsign AAL721
Flight time 0h 53m
Altitude 35000
Route DOTSS2 CNERY BLH HYDRR1
Aircraft A321/M-SDE3FGHIRWY/LB1

Departure

Time 2026-05-01 13:17
Airport Los Angeles International Airport (KLAX)

Arrival

Time 2026-05-01 14:10
Airport Phoenix Sky Harbor International Airport (KPHX)
Time Latitude Longitude Altitude Speed Heading
2026-05-01 12:47 33.93969 -118.40606 92 ft 0 kts 322°
2026-05-01 13:07 33.94000 -118.40549 93 ft 3 kts 173°
2026-05-01 13:07 33.94004 -118.40550 93 ft 0 kts 173°
2026-05-01 13:09 33.93998 -118.40549 93 ft 1 kts 173°
2026-05-01 13:09 33.93985 -118.40547 95 ft 3 kts 173°
2026-05-01 13:09 33.93963 -118.40544 95 ft 4 kts 173°
2026-05-01 13:10 33.93935 -118.40540 95 ft 5 kts 173°
2026-05-01 13:10 33.93901 -118.40534 95 ft 5 kts 173°
2026-05-01 13:10 33.93863 -118.40529 95 ft 6 kts 173°
2026-05-01 13:10 33.93832 -118.40508 96 ft 5 kts 117°
2026-05-01 13:11 33.93831 -118.40467 95 ft 5 kts 88°
2026-05-01 13:11 33.93835 -118.40413 95 ft 7 kts 83°
2026-05-01 13:11 33.93843 -118.40349 96 ft 8 kts 82°
2026-05-01 13:11 33.93851 -118.40276 96 ft 9 kts 82°
2026-05-01 13:12 33.93860 -118.40194 96 ft 10 kts 83°
2026-05-01 13:12 33.93869 -118.40104 96 ft 11 kts 83°
2026-05-01 13:12 33.93879 -118.40007 96 ft 12 kts 83°
2026-05-01 13:12 33.93889 -118.39902 96 ft 13 kts 83°
2026-05-01 13:13 33.93901 -118.39784 96 ft 15 kts 83°
2026-05-01 13:13 33.93913 -118.39655 97 ft 16 kts 83°
2026-05-01 13:13 33.93927 -118.39518 97 ft 17 kts 83°
2026-05-01 13:13 33.93944 -118.39371 94 ft 19 kts 82°
2026-05-01 13:14 33.93961 -118.39212 93 ft 19 kts 83°
2026-05-01 13:14 33.93976 -118.39050 94 ft 20 kts 83°
2026-05-01 13:14 33.93992 -118.38890 94 ft 17 kts 84°
2026-05-01 13:14 33.94006 -118.38742 94 ft 18 kts 83°
2026-05-01 13:15 33.94022 -118.38592 95 ft 18 kts 82°
2026-05-01 13:15 33.94038 -118.38444 98 ft 18 kts 83°
2026-05-01 13:15 33.94022 -118.38335 98 ft 12 kts 139°
2026-05-01 13:15 33.93955 -118.38343 99 ft 10 kts 230°
2026-05-01 13:16 33.93941 -118.38437 100 ft 19 kts 263°
2026-05-01 13:16 33.93892 -118.38914 96 ft 94 kts 263°
2026-05-01 13:16 33.93786 -118.39957 99 ft 154 kts 263°
2026-05-01 13:17 33.93350 -118.44401 1652 ft 181 kts 262°
2026-05-01 13:17 33.93052 -118.45932 1930 ft 199 kts 243°
2026-05-01 13:18 33.91190 -118.48882 2368 ft 246 kts 231°
2026-05-01 13:18 33.90069 -118.50537 2865 ft 261 kts 230°
2026-05-01 13:18 33.88888 -118.52227 3556 ft 267 kts 231°
2026-05-01 13:18 33.87675 -118.53942 4302 ft 271 kts 231°
2026-05-01 13:19 33.86243 -118.55433 5013 ft 278 kts 208°
2026-05-01 13:19 33.84362 -118.55966 5722 ft 283 kts 178°
2026-05-01 13:19 33.80473 -118.55026 7225 ft 286 kts 168°
2026-05-01 13:20 33.78530 -118.54486 7972 ft 287 kts 167°
2026-05-01 13:20 33.76576 -118.53944 8726 ft 289 kts 167°
2026-05-01 13:20 33.74642 -118.53411 9474 ft 290 kts 167°
2026-05-01 13:21 33.70860 -118.51741 10784 ft 296 kts 143°
2026-05-01 13:21 33.69369 -118.49992 11170 ft 309 kts 124°
2026-05-01 13:21 33.68366 -118.47634 11314 ft 329 kts 108°
2026-05-01 13:21 33.67599 -118.44950 11437 ft 350 kts 108°
2026-05-01 13:22 33.66777 -118.42111 11565 ft 370 kts 108°
2026-05-01 13:22 33.65908 -118.39148 11936 ft 381 kts 108°
2026-05-01 13:22 33.65032 -118.36124 12493 ft 386 kts 105°
2026-05-01 13:22 33.64509 -118.32948 13058 ft 388 kts 93°
2026-05-01 13:23 33.64449 -118.29692 13622 ft 392 kts 87°
2026-05-01 13:23 33.64458 -118.26404 14159 ft 396 kts 87°
2026-05-01 13:23 33.64467 -118.23117 14678 ft 401 kts 87°
2026-05-01 13:23 33.64475 -118.19752 15207 ft 405 kts 87°
2026-05-01 13:24 33.64481 -118.16355 15732 ft 409 kts 87°
2026-05-01 13:24 33.64484 -118.12919 16272 ft 413 kts 87°
2026-05-01 13:24 33.64483 -118.09452 16805 ft 418 kts 87°
2026-05-01 13:25 33.64470 -118.02406 17851 ft 427 kts 87°
2026-05-01 13:25 33.64464 -117.98827 18346 ft 431 kts 87°
2026-05-01 13:25 33.64458 -117.95213 18775 ft 435 kts 87°
2026-05-01 13:25 33.64448 -117.91557 19192 ft 439 kts 87°
2026-05-01 13:26 33.64436 -117.87873 19600 ft 443 kts 87°
2026-05-01 13:26 33.64423 -117.84158 20022 ft 447 kts 87°
2026-05-01 13:26 33.64305 -117.80412 20436 ft 452 kts 94°
2026-05-01 13:26 33.63722 -117.76686 20849 ft 458 kts 104°
2026-05-01 13:27 33.62820 -117.73004 21255 ft 461 kts 105°
2026-05-01 13:27 33.61902 -117.69299 21654 ft 465 kts 105°
2026-05-01 13:27 33.60056 -117.61865 22422 ft 471 kts 105°
2026-05-01 13:28 33.58185 -117.54290 23195 ft 477 kts 105°
2026-05-01 13:28 33.57241 -117.50464 23566 ft 480 kts 105°
2026-05-01 13:29 33.55332 -117.42735 24186 ft 486 kts 105°
2026-05-01 13:29 33.53386 -117.34903 24762 ft 492 kts 105°
2026-05-01 13:30 33.50405 -117.18812 25898 ft 498 kts 88°
2026-05-01 13:31 33.50325 -117.10473 26472 ft 504 kts 88°
2026-05-01 13:31 33.50155 -116.97777 27309 ft 512 kts 88°
2026-05-01 13:32 33.50019 -116.89263 27990 ft 513 kts 88°
2026-05-01 13:33 33.49816 -116.76429 29135 ft 514 kts 88°
2026-05-01 13:33 33.49679 -116.67869 29877 ft 514 kts 88°
2026-05-01 13:34 33.49532 -116.59304 30509 ft 514 kts 88°
2026-05-01 13:34 33.49376 -116.50725 31158 ft 514 kts 88°
2026-05-01 13:35 33.49216 -116.42161 31745 ft 514 kts 88°
2026-05-01 13:35 33.49140 -116.37939 32006 ft 514 kts 88°
2026-05-01 13:35 33.49014 -116.29383 32603 ft 514 kts 88°
2026-05-01 13:36 33.48954 -116.25108 32909 ft 513 kts 88°
2026-05-01 13:36 33.48892 -116.20828 33184 ft 514 kts 88°
2026-05-01 13:36 33.48762 -116.12252 33734 ft 515 kts 88°
2026-05-01 13:37 33.48704 -116.07963 33986 ft 514 kts 85°
2026-05-01 13:37 33.48838 -116.05139 34140 ft 511 kts 79°
2026-05-01 13:37 33.49441 -116.00971 34369 ft 506 kts 71°
2026-05-01 13:37 33.50773 -115.96073 34643 ft 502 kts 65°
2026-05-01 13:38 33.53112 -115.88149 34870 ft 505 kts 65°
2026-05-01 13:38 33.54265 -115.84171 34868 ft 506 kts 65°
2026-05-01 13:39 33.56571 -115.76195 34873 ft 506 kts 65°
2026-05-01 13:39 33.58867 -115.68273 34874 ft 506 kts 65°
2026-05-01 13:40 33.61179 -115.60299 34871 ft 507 kts 65°
2026-05-01 13:40 33.62564 -115.51976 34874 ft 519 kts 89°
2026-05-01 13:41 33.62332 -115.44713 34877 ft 521 kts 90°
2026-05-01 13:41 33.62003 -115.36021 34880 ft 522 kts 90°
2026-05-01 13:42 33.61659 -115.27317 34894 ft 523 kts 90°
2026-05-01 13:42 33.61322 -115.18645 34886 ft 523 kts 89°
2026-05-01 13:43 33.60985 -115.09916 34887 ft 524 kts 90°
2026-05-01 13:43 33.60635 -115.01194 34906 ft 524 kts 90°
2026-05-01 13:44 33.60286 -114.92465 34893 ft 524 kts 90°
2026-05-01 13:44 33.59927 -114.83738 34905 ft 524 kts 90°
2026-05-01 13:45 33.59354 -114.75014 34902 ft 526 kts 98°
2026-05-01 13:45 33.57724 -114.66447 34735 ft 527 kts 102°
2026-05-01 13:45 33.56892 -114.62179 34498 ft 526 kts 101°
2026-05-01 13:46 33.56064 -114.57913 34266 ft 525 kts 101°
2026-05-01 13:46 33.55246 -114.53685 33608 ft 529 kts 101°
2026-05-01 13:46 33.54399 -114.49302 32486 ft 531 kts 101°
2026-05-01 13:46 33.53575 -114.45076 31532 ft 527 kts 101°
2026-05-01 13:47 33.52735 -114.40798 30509 ft 526 kts 101°
2026-05-01 13:47 33.51893 -114.36537 29347 ft 525 kts 101°
2026-05-01 13:47 33.51053 -114.32286 28211 ft 523 kts 101°
2026-05-01 13:47 33.50217 -114.28064 27077 ft 519 kts 101°
2026-05-01 13:48 33.49382 -114.23853 25818 ft 519 kts 101°
2026-05-01 13:48 33.48553 -114.19666 24833 ft 508 kts 101°
2026-05-01 13:48 33.47755 -114.15672 24678 ft 476 kts 101°
2026-05-01 13:48 33.46997 -114.11890 24856 ft 461 kts 101°
2026-05-01 13:49 33.46253 -114.08157 24878 ft 459 kts 101°
2026-05-01 13:49 33.45524 -114.04490 24711 ft 458 kts 101°
2026-05-01 13:49 33.44785 -114.00784 24524 ft 457 kts 101°
2026-05-01 13:49 33.44043 -113.97095 24347 ft 456 kts 101°
2026-05-01 13:50 33.43304 -113.93409 24178 ft 454 kts 101°
2026-05-01 13:50 33.42569 -113.89739 24012 ft 453 kts 101°
2026-05-01 13:50 33.41835 -113.86077 23842 ft 452 kts 101°
2026-05-01 13:50 33.41104 -113.82430 23667 ft 450 kts 101°
2026-05-01 13:51 33.40373 -113.78789 23498 ft 449 kts 101°
2026-05-01 13:51 33.39639 -113.75157 23304 ft 448 kts 101°
2026-05-01 13:51 33.38908 -113.71538 23117 ft 447 kts 101°
2026-05-01 13:51 33.38177 -113.67927 22951 ft 445 kts 101°
2026-05-01 13:52 33.37447 -113.64332 22794 ft 444 kts 101°
2026-05-01 13:52 33.36721 -113.60755 22618 ft 442 kts 101°
2026-05-01 13:52 33.35997 -113.57186 22448 ft 441 kts 101°
2026-05-01 13:52 33.35273 -113.53628 22269 ft 439 kts 101°
2026-05-01 13:53 33.34547 -113.50080 22094 ft 438 kts 101°
2026-05-01 13:53 33.33135 -113.43061 21426 ft 438 kts 100°
2026-05-01 13:53 33.32501 -113.39514 21026 ft 433 kts 99°
2026-05-01 13:54 33.31913 -113.36004 20601 ft 429 kts 99°
2026-05-01 13:54 33.31341 -113.32510 20158 ft 426 kts 99°
2026-05-01 13:54 33.30774 -113.29071 19461 ft 418 kts 99°
2026-05-01 13:54 33.30201 -113.25683 18719 ft 412 kts 99°
2026-05-01 13:55 33.29630 -113.22350 18174 ft 408 kts 99°
2026-05-01 13:55 33.29105 -113.19039 17744 ft 402 kts 98°
2026-05-01 13:55 33.28628 -113.15765 17312 ft 397 kts 98°
2026-05-01 13:55 33.28179 -113.12526 16846 ft 393 kts 98°
2026-05-01 13:56 33.27741 -113.09320 16521 ft 385 kts 98°
2026-05-01 13:56 33.27456 -113.06200 16368 ft 371 kts 89°
2026-05-01 13:56 33.27526 -113.03155 16027 ft 363 kts 86°
2026-05-01 13:56 33.27613 -113.00160 15382 ft 359 kts 86°
2026-05-01 13:57 33.27693 -112.97198 14954 ft 355 kts 87°
2026-05-01 13:57 33.27768 -112.94270 14612 ft 350 kts 87°
2026-05-01 13:57 33.27841 -112.91373 14201 ft 347 kts 88°
2026-05-01 13:57 33.27909 -112.88547 13633 ft 342 kts 88°
2026-05-01 13:58 33.27974 -112.85727 13108 ft 335 kts 88°
2026-05-01 13:58 33.28110 -112.83025 12809 ft 320 kts 80°
2026-05-01 13:58 33.28686 -112.80497 12472 ft 312 kts 66°
2026-05-01 13:58 33.29574 -112.78132 12085 ft 313 kts 64°
2026-05-01 13:59 33.30466 -112.75771 11746 ft 309 kts 64°
2026-05-01 13:59 33.31331 -112.73457 11504 ft 297 kts 64°
2026-05-01 13:59 33.32150 -112.71252 11232 ft 285 kts 64°
2026-05-01 13:59 33.32947 -112.69104 10985 ft 280 kts 64°
2026-05-01 14:00 33.33732 -112.67008 10710 ft 274 kts 63°
2026-05-01 14:00 33.34521 -112.64937 10320 ft 272 kts 63°
2026-05-01 14:00 33.35306 -112.62889 9957 ft 270 kts 63°
2026-05-01 14:00 33.36086 -112.60853 9566 ft 268 kts 63°
2026-05-01 14:01 33.36860 -112.58829 9201 ft 266 kts 63°
2026-05-01 14:01 33.37628 -112.56818 8835 ft 265 kts 64°
2026-05-01 14:01 33.38393 -112.54818 8472 ft 264 kts 64°
2026-05-01 14:01 33.39148 -112.52843 8240 ft 255 kts 64°
2026-05-01 14:02 33.39863 -112.50967 8184 ft 243 kts 64°
2026-05-01 14:02 33.40555 -112.49132 8048 ft 242 kts 65°
2026-05-01 14:02 33.41214 -112.47291 7741 ft 239 kts 66°
2026-05-01 14:02 33.41850 -112.45464 7466 ft 237 kts 66°
2026-05-01 14:03 33.42470 -112.43666 7201 ft 236 kts 68°
2026-05-01 14:03 33.42848 -112.41764 6918 ft 235 kts 85°
2026-05-01 14:03 33.42900 -112.39811 6653 ft 234 kts 80°
2026-05-01 14:03 33.43546 -112.38059 6393 ft 231 kts 58°
2026-05-01 14:04 33.44106 -112.36283 6126 ft 230 kts 86°
2026-05-01 14:04 33.44099 -112.34365 5881 ft 231 kts 91°
2026-05-01 14:04 33.44073 -112.32448 5613 ft 230 kts 90°
2026-05-01 14:04 33.44070 -112.31156 5434 ft 229 kts 90°
2026-05-01 14:05 33.44073 -112.28643 5273 ft 229 kts 90°
2026-05-01 14:05 33.44076 -112.26741 4958 ft 228 kts 90°
2026-05-01 14:05 33.44079 -112.24872 4660 ft 219 kts 90°
2026-05-01 14:05 33.44081 -112.23062 4371 ft 216 kts 91°
2026-05-01 14:06 33.44082 -112.21262 4083 ft 215 kts 91°
2026-05-01 14:06 33.44084 -112.19509 3795 ft 205 kts 90°
2026-05-01 14:06 33.44085 -112.17840 3531 ft 196 kts 90°
2026-05-01 14:06 33.44086 -112.16250 3308 ft 185 kts 90°
2026-05-01 14:07 33.44087 -112.14772 3081 ft 171 kts 90°
2026-05-01 14:07 33.44087 -112.13428 2870 ft 159 kts 90°
2026-05-01 14:07 33.44087 -112.12133 2667 ft 153 kts 90°
2026-05-01 14:08 33.44088 -112.09625 2274 ft 149 kts 91°
2026-05-01 14:08 33.44087 -112.08391 2104 ft 148 kts 91°
2026-05-01 14:08 33.44076 -112.07159 1920 ft 148 kts 91°
2026-05-01 14:08 33.44075 -112.05929 1714 ft 147 kts 90°
2026-05-01 14:09 33.44086 -112.04716 1527 ft 145 kts 91°
2026-05-01 14:09 33.44086 -112.03509 1283 ft 144 kts 91°
2026-05-01 14:09 33.44086 -112.02315 1148 ft 143 kts 92°
2026-05-01 14:09 33.44082 -112.01247 1131 ft 107 kts 90°
2026-05-01 14:10 33.44082 -112.00559 1122 ft 59 kts 90°
2026-05-01 14:10 33.44079 -112.00214 1133 ft 26 kts 94°
2026-05-01 14:10 33.43994 -112.00066 1118 ft 21 kts 118°
2026-05-01 14:10 33.43979 -111.99976 1118 ft 0 kts 98°
2026-05-01 14:11 33.43977 -111.99966 1119 ft 4 kts 98°
2026-05-01 14:11 33.43912 -111.99847 1123 ft 17 kts 224°
2026-05-01 14:11 33.43907 -111.99976 1125 ft 15 kts 269°
2026-05-01 14:12 33.43864 -112.00033 1117 ft 10 kts 169°
2026-05-01 14:12 33.43840 -112.00003 1116 ft 4 kts 127°
2026-05-01 14:12 33.43829 -111.99986 1122 ft 2 kts 128°
2026-05-01 14:12 33.43828 -111.99983 1122 ft 0 kts 128°